Weather History for Billings, MT

Change the Weather History Date:

Friday, May 17, 2013

  Actual Average Record
Temperature  
Mean Temperature 56 °F 56 °F  
Max Temperature 61 °F 68 °F 93 °F (1948)
Min Temperature 51 °F 44 °F 32 °F (1942)
Degree Days  
Heating Degree Days 9 10  
Month to date heating degree days 137 203  
Since 1 July heating degree days 6229 6580  
Cooling Degree Days 0 0  
Month to date cooling degree days 27 0  
Year to date cooling degree days 27 1  
Growing Degree Days 6 (Base 50)    
Moisture  
Dew Point 51 °F    
Average Humidity 84    
Maximum Humidity 100    
Minimum Humidity 67    
Precipitation  
Precipitation 0.17 in 0.07 in 1.32 in (1978)
Month to date precipitation 0.45 1.14  
Year to date precipitation 2.61 4.82  
Snow  
Snow 0.00 in 0.00 in T in (1996)
Month to date snowfall T 1.6  
Since 1 July snowfall 40.4 54.6  
Snow Depth 0.00 in    
Sea Level Pressure  
Sea Level Pressure 29.84 in    
Wind  
Wind Speed 5 mph (NNW)    
Max Wind Speed 13 mph    
Max Gust Speed 14 mph    
Visibility 10 miles    
Events Rain    
T = Trace of Precipitation, MM = Missing Value Source: NWS Daily Summary

Daily Weather History Graph

Daily Weather History Graph

Search for Another Location

Airport:

Trip Planner

Search our weather history database for the weather conditions in past years. The results will help you decide how hot, cold, wet, or windy it might be!

Date:

Astronomy

May. 17, 2013 Rise Set
Actual Time 5:40 AM MDT 8:41 PM MDT
Civil Twilight 5:04 AM MDT 9:17 PM MDT
Nautical Twilight 4:19 AM MDT 10:02 PM MDT
Astronomical Twilight 3:25 AM MDT 10:57 PM MDT
Moon 12:25 PM MDT (5/17) 1:27 AM MDT (5/17)
Length of Visible Light 16h 12m
Length of Day
15h 01m
Waxing Crescent, 46% of the Moon is Illuminated
May 17
Waxing Crescent
May 17
First Quarter
May 24
Full
May 31
Last Quarter
Jun 8
New

Hourly Weather History & Observations

Time (MDT) Temp. Dew Point Humidity Pressure Visibility Wind Dir Wind Speed Gust Speed Precip Events Conditions
12:53 AM 53.1 °F 50.0 °F 89% 29.83 in 10.0 mi NW 9.2 mph - N/A   Overcast
1:53 AM 52.0 °F 48.9 °F 89% 29.83 in 10.0 mi NW 6.9 mph - N/A   Overcast
2:53 AM 53.1 °F 48.0 °F 83% 29.82 in 10.0 mi WSW 5.8 mph - N/A   Overcast
3:53 AM 52.0 °F 48.9 °F 89% 29.83 in 10.0 mi WNW 5.8 mph - N/A   Overcast
4:53 AM 51.1 °F 48.0 °F 89% 29.82 in 10.0 mi WNW 6.9 mph - N/A   Overcast
5:18 AM 51.1 °F 48.0 °F 89% 29.86 in 10.0 mi West 5.8 mph - N/A   Mostly Cloudy
5:53 AM 51.8 °F 48.2 °F 88% 29.87 in 10.0 mi SSW 4.6 mph - N/A   Mostly Cloudy
6:53 AM 51.1 °F 48.9 °F 92% 29.86 in 10.0 mi SSW 5.8 mph - N/A   Mostly Cloudy
7:53 AM 53.1 °F 48.0 °F 83% 29.86 in 10.0 mi SSW 5.8 mph - N/A   Mostly Cloudy
8:53 AM 55.0 °F 48.0 °F 77% 29.86 in 10.0 mi WSW 3.5 mph - N/A   Mostly Cloudy
9:53 AM 55.9 °F 48.9 °F 77% 29.85 in 10.0 mi SW 4.6 mph - N/A   Mostly Cloudy
10:53 AM 55.0 °F 50.0 °F 83% 29.86 in 10.0 mi South 4.6 mph - 0.01 in Rain Light Rain
11:53 AM 54.0 °F 51.1 °F 90% 29.87 in 10.0 mi South 6.9 mph - 0.03 in Rain Light Rain
12:53 PM 59.0 °F 51.1 °F 75% 29.83 in 10.0 mi Variable 3.5 mph - 0.00 in   Mostly Cloudy
1:40 PM 59.0 °F 50.0 °F 72% 29.86 in 10.0 mi ENE 4.6 mph - N/A   Mostly Cloudy
1:53 PM 59.0 °F 48.9 °F 69% 29.82 in 10.0 mi East 8.1 mph - N/A   Mostly Cloudy
2:21 PM 59.0 °F 51.1 °F 75% 29.85 in 10.0 mi ENE 3.5 mph - N/A   Mostly Cloudy
2:53 PM 59.0 °F 51.1 °F 75% 29.83 in 10.0 mi East 3.5 mph - N/A   Mostly Cloudy
3:00 PM 59.0 °F 52.0 °F 78% 29.85 in 10.0 mi East 5.8 mph - N/A   Overcast
3:18 PM 59.0 °F 52.0 °F 78% 29.85 in 10.0 mi NE 6.9 mph - N/A   Mostly Cloudy
3:53 PM 57.9 °F 53.1 °F 84% 29.81 in 10.0 mi ENE 8.1 mph - N/A   Overcast
4:03 PM 57.9 °F 53.1 °F 84% 29.85 in 10.0 mi ENE 6.9 mph - N/A   Overcast
4:53 PM 57.0 °F 54.0 °F 89% 29.83 in 7.0 mi NE 4.6 mph - 0.02 in Rain Light Rain
5:13 PM 57.0 °F 54.0 °F 89% 29.85 in 4.0 mi NE 5.8 mph - 0.02 in Rain Rain
5:53 PM 55.9 °F 53.1 °F 90% 29.83 in 9.0 mi North 4.6 mph - 0.06 in Rain Light Rain
6:53 PM 55.0 °F 53.1 °F 93% 29.81 in 6.0 mi North 9.2 mph - 0.04 in Rain Light Rain
7:53 PM 55.0 °F 53.1 °F 93% 29.82 in 10.0 mi North 5.8 mph - 0.01 in   Overcast
8:00 PM 55.9 °F 54.0 °F 93% 29.85 in 10.0 mi North 6.9 mph - N/A   Overcast
8:53 PM 55.0 °F 54.0 °F 96% 29.84 in 10.0 mi SW 3.5 mph - N/A   Overcast
9:53 PM 54.0 °F 52.0 °F 93% 29.86 in 10.0 mi Calm Calm - N/A   Scattered Clouds
10:53 PM 55.0 °F 52.0 °F 89% 29.84 in 10.0 mi Calm Calm - N/A   Mostly Cloudy
11:53 PM 52.0 °F 51.1 °F 97% 29.87 in 10.0 mi NW 5.8 mph - N/A   Mostly Cloudy